Regional Weather Roundup
Issued by NWS

Home | Current Version | Previous Version | Graphics & Text | Print | Product List | Glossary On
Versions: 1 2 3 4 5 6 7 8 9 10 11 12 13 14 15 16 17 18 19 20 21 22 23 24 25 26 27 28 29 30 31 32 33 34 35 36 37 38 39 40 41 42 43 44 45 46 47 48 49 50
000
ASUS45 KBOU 040207
RWRCO

WEATHER ROUNDUP FOR COLORADO
NATIONAL WEATHER SERVICE DENVER/BOULDER CO
700 PM MST TUE MAR 03 2015

NOTE: "FAIR" INDICATES FEW OR NO CLOUDS BELOW 12000 FEET WITH NO
SIGNIFICANT WEATHER AND/OR OBSTRUCTIONS TO VISIBILITY.

COZ001>005-013-030-031-040300-
...NORTHWEST COLORADO...

CITY           SKY/WX    TMP DP  RH WIND       PRES   REMARKS
CRAIG          CLOUDY    23  15  71 NW6       29.80R WCI  16
HAYDEN         CLOUDY    21  16  79 W10       29.78R WCI  10
MEEKER         LGT SNOW  26  24  92 S5        29.79R VSB 1   WCI  20
MOUNT WERNER   NOT AVBL
STEAMBOAT SPGS CLOUDY    21  19  92 SW10      29.76R WCI  10
WALDEN         CLOUDY    12   9  85 N10       29.70R WCI  -1
$$

COZ006>008-011-040300-
...WEST CENTRAL VALLEYS...

CITY           SKY/WX    TMP DP  RH WIND       PRES   REMARKS
GRAND JUNCTION CLOUDY    36  29  75 NW14      29.80R
MONTROSE       MOCLDY    38  22  52 CALM      29.79R
EAGLE          MOCLDY    28  27  93 CALM      29.76R
RIFLE          MOCLDY    34  28  79 SE6       29.75R WCI  29
DELTA          CLOUDY    39  29  67 NW16G23   29.79R
NUCLA          CLOUDY    36  27  69 NW6       29.84R
$$

COZ017>023-064>068-040300-
...SOUTHWEST COLORADO...

CITY           SKY/WX    TMP DP  RH WIND       PRES   REMARKS
DURANGO        MOCLDY    30  25  81 SW10      29.82R WCI  21
CORTEZ         PTCLDY    34  30  85 E7        29.83R WCI  28
PAGOSA SPRINGS PTCLDY    26  26 100 CALM      29.82R FOG
TELLURIDE      CLOUDY    24  15  67 CALM      29.80S
WOLF CREEK PAS NOT AVBL
$$

COZ009-010-012-014-032>034-037-058>063-040300-
...CENTRAL COLORADO...

CITY           SKY/WX    TMP DP  RH WIND       PRES   REMARKS
ASPEN          LGT SNOW  26  23  88 N5        29.72R FOG     WCI  20
BUENA VISTA    MOCLDY    29  12  49 W9        29.70R WCI  20
COPPER MTN     NOT AVBL
BERTHOUD PASS  SNOW       7   1  78 W25       29.63S VSB 1/4 WCI -15
COTTONWOOD PAS CLOUDY    28   7  40 NW9G16    29.69R WCI  20
GUNNISON       MOCLDY    28  16  59 W6        29.78R WCI  22
KREMMLING      CLOUDY    28  16  59 NW6       29.73R WCI  22
LEADVILLE      MOCLDY    15  11  83 NE7       29.67R WCI   5
SALIDA         PTCLDY    32  20  62 SW6       29.81R WCI  26
SUNLIGHT       CLOUDY    19  18  93 CALM        N/A
WILKERSON PASS MOCLDY    14  12  92 SW7       29.69R WCI   4
$$

COZ069>075-040300-
...SAN LUIS VALLEY/SANGRE DE CRISTO MOUNTAINS...

CITY           SKY/WX    TMP DP  RH WIND       PRES   REMARKS
ALAMOSA        CLEAR     28  21  75 S9        29.77R WCI  19
LA VETA PASS   CLOUDY    23  14  68 S10G29    29.74R WCI  12
SAGUACHE       PTCLDY    30  23  74 NW7       29.75R WCI  23
$$

COZ035-036-038>040-040300-
...NORTHERN COLORADO FRONT RANGE...

CITY           SKY/WX    TMP DP  RH WIND       PRES   REMARKS
DENVER INTL AP FLURRIES  19  15  84 NE6       29.85R WCI  11
DMNS CITY PARK   N/A     20  15  79 E7        29.85R WCI  11
AURORA         FLURRIES  18  16  93 NE7       29.84R WCI   8
FRONT RANGE AP NOT AVBL
ERIE MUNI ARPT FLURRIES  22  16  76 E3        29.87R
BOULDER MUN AP LGT SNOW  21  19  93 CALM      29.85R
CENTENNIAL     CLOUDY    19  15  84 NE3       29.82R
BROOMFIELD     DRIZZLE   19  16  86 E6          N/A  WCI  11
FORT COLLINS   CLOUDY    19  14  79 N15       29.90R VSB 1/2 WCI   5
LONGMONT       MOCLDY    23  15  72 CALM      29.89R
$$

COZ041-046-047-076>085-087-088-040300-
...PIKES PEAK/PALMER DIVIDE AND SOUTHERN FOOTHILLS...

CITY           SKY/WX    TMP DP  RH WIND       PRES   REMARKS
COLO. SPRINGS  LGT SNOW  21  19  92 SE15      29.81R VSB 1   WCI   8
A. F. ACADEMY  CLOUDY    20  17  88 S12       29.77R WCI   8
ELLICOTT       NOT AVBL
FALCON         LGT SNOW  18  17  95 S12       29.78S WCI   5
FORT CARSON    LGT SNOW  23  21  93 S16       29.80F FOG     WCI  10
LIMON          NOT AVBL
MONUMENT HILL  CLOUDY    18  16  93 SE12      29.75R WCI   5
TRINIDAD       FOG       27  26  96 E9        29.82R VSB 1/4 WCI  18
$$

COZ042>045-048>051-090-091-040300-
...NORTHEAST COLORADO...

CITY           SKY/WX    TMP DP  RH WIND       PRES   REMARKS
GREELEY ARPT   CLOUDY    21  12  68 NE14      29.88R WCI   8
AKRON          LGT SNOW  20  14  77 E7        29.90R WCI  11
BURLINGTON     CLOUDY    26  14  60 E5        29.93R WCI  20
WRAY           CLOUDY    26  12  54 NE10      29.96R WCI  16
STERLING       CLOUDY    23  12  63 NE9       29.93R WCI  13
HOLYOKE        NOT AVBL
FORT MORGAN    CLOUDY    22  13  70 NE8       29.91R WCI  12
$$

COZ086-089-092>099-040300-
...SOUTHEAST COLORADO...

CITY           SKY/WX    TMP DP  RH WIND       PRES   REMARKS
PUEBLO         FRZ RAIN  27  25  92 NE12      29.88R FOG     WCI  17
LA JUNTA       CLOUDY    29  22  75 E12       29.90R WCI  19
LAMAR          CLOUDY    29  21  72 E12       29.90R WCI  19
SPRINGFIELD      N/A     25  24  96 NE12      29.89R WCI  14
$$



USA.gov is the U.S. government's official web portal to all federal, state and local government web resources and services.